Tracking 31027 objects as of 19-Jul-2025
HD Live streaming from Space Station
objects crossing your sky now

INTELSAT 3-F8

Track INTELSAT 3-F8 now!
INTELSAT 3-F8 is classified as:


NORAD ID: 4478
Int'l Code: 1970-055A
Perigee: 33,929.1 km
Apogee: 36,559.0 km
Inclination: 4.6 °
Period: 1,408.1 minutes
Semi major axis: 41615 km
RCS: 2.5127 m2 (large)
Launch date: July 23, 1970
Source: International Telecommunications Satellite Organization (ITSO)
Launch site: AIR FORCE EASTERN TEST RANGE (AFETR)
Your satellite tracking list
MANDRAKE 2 ABLE
Track 1 satellite(s)




NASA's NSSDC Master Catalog

Two Line Element Set (TLE):
1 04478U 70055A   25199.63876127 -.00000246  00000-0  00000-0 0  9999
2 04478   4.6392  72.9840 0315979 106.0740 103.3301  1.02265069119419
Source of the keplerian elements: AFSPC